MIRATA

Last updated on Fri Oct 24 2025 00:03:53 GMT+0000 (Coordinated Universal Time)

1 43015U 17073C 25296.36297978 .10616425 26030-5 12616-2 0 9995 2 43015 97.4900 200.2313 0009154 255.2752 104.7531 16.36504952432036
UTC large
Height (km)
Speed (km/s)
/
Latitude / Longitude
Inclination (degrees)
Orbital Period (minutes)
Azimuth
Elevation
Range (km)
Doppler Factor

Next 0 passes for location: London (51.5072 / 0.1276)

Sorry there are no passes over London.